Location: Wangen/Allg�u
(47.6873°N, 9.8307°E)
Time: 13:22:52
(UTC+01:00)

ISS - Pass Details

Date: 29 November 2021
Orbit: 413 x 422 km, 51.6° (Epoch: 27 January)

Event Time Altitude Azimuth Distance (km) Brightness Sun altitude
Rises 18:27:10 0° 286° (WNW) 2,388 1.2 -18.7°
Reaches altitude 10° 18:29:21 10° 293° (WNW) 1,519 -0.1 -19.1°
Enters shadow 18:32:29 42° 358° (N) 619 -3.1 -19.6°
